This is the latest recevied weather packets stored in our database for station/object K6MBY. If no packets are shown the sender has not sent any weather packets the latest 10 day(s).
| Time | Temp. | Humidity | Pressure | Rain* | Wind** | Luminosity | Snow |
|---|---|---|---|---|---|---|---|
| 1777928271 | 17.78° C | 65% | 1014.4 hPa | 0 mm | - | 821 W/m² | - |
| 1777927969 | 16.67° C | 65% | 1014.3 hPa | 0 mm | - | 827 W/m² | - |
| 1777927667 | 17.22° C | 66% | 1014.5 hPa | 0 mm | - | 832 W/m² | - |
| 1777927365 | 17.22° C | 66% | 1014.3 hPa | 0 mm | - | 767 W/m² | - |
| 1777927064 | 17.78° C | 65% | 1014.3 hPa | 0 mm | - | 833 W/m² | - |
| 1777926761 | 17.22° C | 64% | 1014.4 hPa | 0 mm | - | 845 W/m² | - |
| 1777926461 | 17.22° C | 65% | 1014.5 hPa | 0 mm | - | 845 W/m² | - |
| 1777926158 | 17.78° C | 62% | 1014.3 hPa | 0 mm | - | 848 W/m² | - |
| 1777925855 | 17.22° C | 63% | 1014.4 hPa | 0 mm | - | 850 W/m² | - |
| 1777925552 | 17.78° C | 64% | 1014.3 hPa | 0 mm | - | 836 W/m² | - |
| 1777925250 | 17.22° C | 65% | 1014.3 hPa | 0 mm | - | 855 W/m² | - |
| 1777924946 | 17.78° C | 65% | 1014.4 hPa | 0 mm | - | 855 W/m² | - |
| 1777924642 | 17.22° C | 64% | 1014.5 hPa | 0 mm | - | 848 W/m² | - |
| 1777924339 | 17.22° C | 60% | 1014.5 hPa | 0 mm | - | 860 W/m² | - |
| 1777924036 | 17.78° C | 59% | 1014.3 hPa | 0 mm | - | 774 W/m² | - |
| 1777923732 | 18.33° C | 60% | 1014.5 hPa | 0 mm | - | 818 W/m² | - |
| 1777923428 | 17.78° C | 61% | 1014.5 hPa | 0 mm | - | 806 W/m² | - |
| 1777923126 | 17.78° C | 61% | 1014.4 hPa | 0 mm | - | 794 W/m² | - |
| 1777922824 | 17.78° C | 58% | 1014.3 hPa | 0 mm | - | 841 W/m² | - |
| 1777922522 | 17.78° C | 62% | 1014.5 hPa | 0 mm | - | 866 W/m² | - |
| 1777922220 | 20° C | 58% | 1014.4 hPa | 0 mm | - | 699 W/m² | - |
| 1777921916 | 20° C | 57% | 1014.2 hPa | 0 mm | - | 609 W/m² | - |
| 1777921612 | 20.56° C | 54% | 1014.2 hPa | 0 mm | - | 742 W/m² | - |
| 1777921309 | 21.67° C | 52% | 1014.2 hPa | 0 mm | - | 741 W/m² | - |
| 1777921005 | 21.67° C | 52% | 1014.2 hPa | 0 mm | - | 799 W/m² | - |
* Rain latest hour (hover to see other rain measurements)
** Current wind speed in m/s (hover to see current wind gust speed)